Location: Newark
(48.0000°N, 67.0000°E)
Time: 06:41:47
(UTC+00:00)

N. Korean satellite - Pass Details

Date: 24 January 2020
Orbit: 456 x 505 km, 97.2° (Epoch: 27 February)

Event Time Altitude Azimuth Distance (km) Brightness Sun altitude
Rises 13:38:19 0° 214° (SW) 2,465 10.9 -13.3°
Reaches altitude 10° 13:41:29 10° 247° (WSW) 1,598 10.6 -13.8°
Maximum altitude 13:42:51 12° 271° (W) 1,486 10.3 -14.0°
Drops below altitude 10° 13:44:13 10° 294° (WNW) 1,606 10.0 -14.2°
Sets 13:47:25 0° 327° (NNW) 2,493 10.4 -14.7°
